Home > Weather > Vevay > Past weeks

Flag for USA Past Weather in Vevay, Indiana, USA — Yesterday and Last 2 Weeks

Now
80 °F

Broken clouds.


Feels Like: 85 °F
Forecast: 74 / 88 °F
Wind: No wind

Location: Cincinnati / Northern Kentucky International Airport

Current Time: Jul 26, 2016 at 6:01:14 PM

Latest Report: Jul 26, 2016 at 3:52 PM


Visibility: 10 mi

Pressure: 29.98 "Hg

Humidity: 81%

Dew Point: 74 °F

Location of VevayLocation

Past Weather in Vevay — Graph

°F

Vevay Temperature Yesterday

Maximum temperature yesterday: 93 °F (at 4:52 PM)
Minimum temperature yesterday: 76 °F (at 4:52 AM)
Average temperature yesterday: 83 °F

High & Low Weather Summary for the Past Weeks

 TemperatureHumidityPressure
High93 °F (Jul 23, 4:52 PM)100% (Jul 12, 2:00 PM)30.25 "Hg (Jul 12, 2:00 PM)
Low66 °F (Jul 17, 2:52 AM)43% (Jul 11, 4:52 PM)29.88 "Hg (Jul 14, 4:52 PM)
Average79 °F77%30.04 "Hg
* Reported Jul 11 3:52 PM — Jul 26 3:52 PM, Vevay, Weather by CustomWeather, © 2016

Note: Actual official high and low records may vary slightly from our data, if they occured in-between our weather recording intervals... More about our weather records

Advertising

Vevay Weather History for the Previous 24 Hours

Scroll right to see more
 ConditionsComfort  
Time TempWeatherWind HumidityBarometerVisibility
3:52 PM
Tue, Jul 26
80 °FBroken clouds.No wind81%29.98 "Hg10 mi
2:52 PM78 °FBroken clouds.8 mph87%30.00 "Hg8 mi
2:01 PM73 °FThunderstorms. Fog.5 mph100%30.05 "Hg2 mi
1:52 PM73 °FThunderstorms. Fog.No wind100%30.02 "Hg2 mi
1:04 PM82 °FThunderstorms. Mostly cloudy.17 mph70%30.04 "Hg9 mi
12:52 PM84 °FThunderstorms. Cloudy.12 mph67%30.00 "Hg9 mi
11:52 AM86 °FBroken clouds.6 mph65%30.01 "Hg10 mi
10:52 AM84 °FMore clouds than sun.No wind65%30.01 "Hg10 mi
9:52 AM83 °FBroken clouds.5 mph65%30.01 "Hg10 mi
8:52 AM81 °FBroken clouds.6 mph69%30.01 "Hg10 mi
7:52 AM79 °FMostly cloudy.6 mph74%30.01 "Hg10 mi
6:52 AM77 °FMostly cloudy.5 mph88%30.01 "Hg10 mi
5:52 AM78 °FMostly cloudy.6 mph87%29.99 "Hg9 mi
4:52 AM77 °FMostly cloudy.No wind96%29.98 "Hg7 mi
3:52 AM76 °FFog.No wind97%29.98 "Hg6 mi
2:52 AM76 °FFog.3 mph97%29.98 "Hg6 mi
1:52 AM76 °FFog.No wind97%29.98 "Hg6 mi
12:52 AM77 °FPartly cloudy.3 mph94%29.98 "Hg7 mi
11:52 PM
Mon, Jul 25
77 °FPartly cloudy.No wind94%29.97 "Hg7 mi
10:52 PM78 °FMostly cloudy.3 mph93%29.97 "Hg8 mi
9:52 PM79 °FOvercast.5 mph90%29.96 "Hg8 mi
8:52 PM81 °FCloudy.No wind85%29.96 "Hg8 mi
7:52 PM84 °FCloudy.3 mph77%29.95 "Hg8 mi
6:52 PM85 °FBroken clouds.5 mph75%29.94 "Hg9 mi
Weather by CustomWeather, © 2016

See weather overviewHow to use our weather pages